Zurück zum Katalog

STARLINK-34482

AktivKommunikationVLEO
NORAD 64782·PAYLOAD·🇺🇸 United States

Gestartet Jul 8, 2025 von Cape Canaveral Space Force Station

Loading…

Nächste Überflüge (nächste 24 Stunden)

TLE

AktuellSource: CelesTrak SupGP

Epoche: Sep 14, 2026, 21:32 UTC

1 64782C 25147AD  26257.89770833  .00014888  00000+0  44000-3 0  2579
2 64782  53.1576  79.9870 0001255  86.4400 338.6514 15.34374251    17

Verfolge STARLINK-34482 in Echtzeit mit AllMySat

Download on the App Store